DateTimeUTC,F1_A11,F1_S11,BsB_S11,BsG_S11,BsR_S11,BbsB_S11,BbsG_S11,BbsR_S11,BaB_A11,BaG_A11,BaR_A11,Tu_S11,T_S11,Uu_S11,U_S11,P_S11,T1_A11
2021-10-27T03:00:00Z,00000200,21000000,,,,,,,0000.11,-000.28,0000.36,17.9,25.0,,00.0,0645.2,31.0
2021-10-27T03:01:00Z,00000200,21000000,,,,,,,-000.10,-000.00,-000.05,17.9,25.0,,00.0,0645.2,31.0
2021-10-27T03:02:00Z,00000200,21000000,,,,,,,-000.03,0000.04,0000.11,17.9,25.0,,00.0,0645.2,31.0
2021-10-27T03:03:00Z,00000200,61000000,,,,,,,0000.12,-000.22,0000.07,17.9,25.0,,00.0,0645.2,30.9
2021-10-27T03:04:00Z,00000200,41000000,-000.03,-000.13,0000.11,0000.32,0000.23,0000.04,-000.21,-000.08,-000.29,17.8,24.7,,00.0,0646.1,30.9
2021-10-27T03:05:00Z,00000200,01000000,-000.12,0000.22,-000.06,0000.83,-000.01,0000.15,0000.17,0000.02,-000.23,17.7,24.6,,00.0,0646.1,31.0
2021-10-27T03:06:00Z,00000200,01000000,0000.48,-000.27,0000.21,0000.21,0000.05,-000.08,0000.11,0000.25,0000.28,17.7,24.5,,00.0,0646.1,30.9
2021-10-27T03:07:00Z,00000200,01000000,-000.34,0000.05,-000.07,0000.63,-000.17,0000.22,0000.11,-000.11,0000.14,17.6,24.5,,00.0,0646.1,30.9
2021-10-27T03:08:00Z,00000200,01000000,-000.62,-000.07,-000.02,0000.41,0000.10,-000.10,0000.08,0000.07,0000.05,17.5,24.4,,00.0,0646.1,30.9
2021-10-27T03:09:00Z,00000200,01000000,-000.39,0000.08,0000.13,-000.04,0000.46,0000.33,-000.26,0000.24,0000.28,17.5,24.4,,00.0,0646.0,30.9
2021-10-27T03:10:00Z,00000200,01000000,0000.55,0000.03,0000.42,-000.03,0000.38,-000.14,0000.44,0000.06,-000.27,17.4,24.4,,00.0,0646.0,30.9
2021-10-27T03:11:00Z,00000200,01000000,0000.51,-000.08,-000.23,0000.08,-000.06,-000.11,-000.04,0000.41,0000.40,17.4,24.3,,00.0,0646.0,30.9
2021-10-27T03:12:00Z,00000200,01000000,0000.32,0000.08,0000.16,0000.44,-000.22,-000.15,0000.01,-000.49,-000.43,17.3,24.3,,00.0,0646.0,30.9
2021-10-27T03:13:00Z,00000200,01000000,-000.29,-000.09,0000.08,-000.22,0000.42,-000.01,-000.07,-000.14,0000.06,17.3,24.2,,00.0,0646.0,30.9
2021-10-27T03:14:00Z,00000200,01000000,0000.94,0000.04,0000.05,-000.09,0000.18,0000.21,-000.04,-000.28,-000.04,17.3,24.2,,00.0,0646.0,30.9
2021-10-27T03:15:00Z,00000200,01000000,-000.35,-000.01,0000.08,0000.64,-000.25,0000.03,-000.10,0000.00,0000.13,17.4,24.3,,00.0,0646.0,31.0
2021-10-27T03:16:00Z,00000200,01000000,0000.60,0000.24,-000.03,0000.51,-000.17,0000.34,0000.17,0000.37,-000.14,17.4,24.3,,00.0,0646.0,31.0
2021-10-27T03:17:00Z,00000200,01000000,-000.04,-000.10,-000.20,0000.31,0000.07,0000.34,-000.31,0000.03,-000.00,17.5,24.3,,00.0,0646.0,31.0
2021-10-27T03:18:00Z,00000200,01000000,0000.46,0000.02,0000.20,0000.40,0000.01,0000.09,0000.10,-000.24,0000.27,17.6,24.3,,00.0,0646.0,31.0
2021-10-27T03:19:00Z,00000200,01000000,0000.64,-000.21,0000.13,0000.06,-000.33,0000.10,0000.01,-000.05,-000.01,17.7,24.4,,00.0,0646.0,31.0
2021-10-27T03:20:00Z,00000200,01000000,-000.14,-000.21,-000.07,0000.44,-000.18,0000.05,0000.07,0000.08,-000.21,17.8,24.4,,00.0,0646.0,31.0
2021-10-27T03:21:00Z,00000200,01000000,0000.17,0000.19,0000.07,-000.05,-000.05,0000.34,-000.40,-000.06,-000.04,17.8,24.4,,00.0,0646.1,31.0
2021-10-27T03:22:00Z,00000200,01000000,-000.01,0000.23,0000.09,0000.42,0000.15,0000.07,-000.14,-000.08,0000.18,17.9,24.4,,00.0,0646.1,31.0
2021-10-27T03:23:00Z,00000200,01000000,0000.57,0000.08,0000.18,0000.39,0000.02,0000.32,-000.05,0000.30,-000.47,18.0,24.4,,00.0,0646.1,31.1
2021-10-27T03:24:00Z,00000200,01000000,0000.16,0000.33,0000.20,0000.04,-000.01,0000.05,0000.02,-000.56,0000.30,18.0,24.5,,00.0,0646.1,31.1
2021-10-27T03:25:00Z,00000200,01000000,0000.18,-000.14,0000.21,0000.14,-000.06,0000.17,-000.17,0000.08,-000.11,18.1,24.5,,00.0,0646.1,31.1
2021-10-27T03:26:00Z,00000200,01000000,0000.10,0000.28,0000.15,-000.15,0000.15,0000.13,-000.29,-000.37,-000.20,18.2,24.6,,00.0,0646.1,31.1
2021-10-27T03:27:00Z,00000200,01000000,-000.04,0000.32,-000.01,0000.19,-000.15,-000.13,-000.08,0000.28,0000.18,18.2,24.6,,00.0,0646.2,31.1
2021-10-27T03:28:00Z,00000200,01000000,0000.17,-000.31,0000.14,0000.00,-000.31,0000.33,0000.17,0000.29,-000.40,18.3,24.6,,00.0,0646.2,31.1
2021-10-27T03:29:00Z,00000200,01000000,-000.29,-000.14,0000.05,0000.32,0000.21,0000.27,-000.18,-000.65,-000.19,18.3,24.6,,00.0,0646.2,31.1
2021-10-27T03:30:00Z,00000200,01000000,-000.37,0000.08,-000.05,0000.10,-000.04,0000.25,-000.19,0000.40,0000.43,18.3,24.7,,00.0,0646.1,31.1
2021-10-27T03:31:00Z,00000200,01000000,0000.71,0000.14,-000.13,-000.12,0000.24,0000.01,0000.42,0000.05,0000.04,18.3,24.7,,00.0,0646.1,31.1
2021-10-27T03:32:00Z,00000200,01000000,0000.35,-000.55,0000.28,0000.35,0000.40,-000.04,0000.10,0000.16,0000.24,18.4,24.7,,00.0,0646.1,31.1
2021-10-27T03:33:00Z,00000200,01000000,0000.16,-000.17,-000.21,0000.63,0000.30,-000.08,0000.20,-000.18,-000.04,18.4,24.7,,00.0,0646.1,31.1
2021-10-27T03:34:00Z,00000200,01000000,0000.81,0000.03,-000.04,0000.05,0000.05,0000.02,0000.06,0000.08,0000.42,18.5,24.8,,00.0,0646.1,31.1
2021-10-27T03:35:00Z,00000200,01000000,-000.35,0000.16,0000.28,-000.01,0000.05,0000.21,-000.00,0000.59,-000.04,18.5,24.8,,00.0,0646.1,31.1
2021-10-27T03:36:00Z,00000200,01000000,0000.18,0000.12,0000.31,0000.24,0000.10,0000.62,0000.44,0000.43,0000.15,18.6,24.8,,00.0,0646.1,31.1
2021-10-27T03:37:00Z,00000200,01000000,0000.41,0000.28,0000.02,-000.03,0000.09,-000.01,0000.22,-000.29,-000.22,18.5,24.9,,00.0,0646.1,31.1
2021-10-27T03:38:00Z,00000200,01000000,-000.71,0000.24,0000.10,0000.48,0000.06,-000.07,-000.14,-000.05,-000.08,18.4,24.9,,00.0,0646.1,31.1
2021-10-27T03:39:00Z,00000200,01000000,-000.09,0000.36,0000.22,-000.06,-000.32,0000.25,-000.14,-000.12,0000.02,18.3,24.8,,00.0,0646.0,31.0
2021-10-27T03:40:00Z,00000200,01000000,-000.27,0000.09,0000.05,-000.25,0000.36,0000.04,0000.02,0000.00,-000.14,18.3,24.8,,00.0,0646.0,31.0
2021-10-27T03:41:00Z,00000200,01000000,-000.13,0000.02,0000.16,-000.05,-000.02,0000.32,-000.16,0000.04,0000.09,18.2,24.7,,00.0,0646.1,31.0
2021-10-27T03:42:00Z,00000200,01000000,0000.02,0000.02,0000.08,0000.61,-000.06,0000.14,0000.20,-000.38,-000.35,18.1,24.7,,00.0,0646.1,31.0
2021-10-27T03:43:00Z,00000200,01000000,0000.12,-000.11,-000.01,0000.55,-000.17,-000.09,0000.14,0000.41,0000.37,18.0,24.7,,00.0,0646.1,31.0
2021-10-27T03:44:00Z,00000200,01000000,0000.60,0000.21,-000.45,0000.45,0000.01,0000.04,-000.48,-000.54,-000.27,18.0,24.6,,00.0,0646.1,31.0
2021-10-27T03:45:00Z,00000200,01000000,-000.46,0000.05,-000.10,0000.11,0000.00,-000.04,0000.81,0000.54,0000.40,18.0,24.6,,00.0,0646.1,31.0
2021-10-27T03:46:00Z,00000200,01000000,0000.57,0000.30,0000.10,0000.24,0000.02,0000.14,-000.20,-000.10,0000.35,18.1,24.7,,00.0,0646.1,31.0
2021-10-27T03:47:00Z,00000200,01000000,0000.31,0000.20,0000.11,0000.96,0000.08,0000.29,0000.14,0000.27,-000.28,18.1,24.7,,00.0,0646.1,31.0
2021-10-27T03:48:00Z,00000200,01000000,0000.60,0000.02,0000.12,-000.06,0000.14,-000.03,0000.01,-000.07,0000.11,18.2,24.7,,00.0,0646.1,31.0
2021-10-27T03:49:00Z,00000200,01000000,-000.00,-000.34,-000.04,-000.05,-000.25,0000.03,-000.20,0000.39,-000.21,18.2,24.7,,00.0,0646.1,31.0
2021-10-27T03:50:00Z,00000200,01000000,0000.08,0000.21,-000.10,0000.11,0000.19,-000.06,0000.31,-000.05,0000.60,18.2,24.7,,00.0,0646.0,31.0
2021-10-27T03:51:00Z,00000200,01000000,0000.13,-000.10,-000.04,0000.13,0000.09,-000.13,0000.19,0000.08,-000.28,18.2,24.7,,00.0,0646.0,31.0
2021-10-27T03:52:00Z,00000200,01000000,-000.09,-000.29,0000.09,-000.06,0000.14,-000.05,-000.16,-000.04,0000.10,18.1,24.7,,00.0,0646.0,31.0
2021-10-27T03:53:00Z,00000200,01000000,-000.29,-000.07,-000.06,0000.36,0000.05,0000.03,-000.22,0000.35,-000.10,18.1,24.7,,00.0,0646.0,31.0
2021-10-27T03:54:00Z,00000200,01000000,-000.19,0000.04,0000.08,0000.23,0000.03,0000.27,-000.26,-000.91,-000.21,18.0,24.7,,00.0,0646.0,31.0
2021-10-27T03:55:00Z,00000200,01000000,0000.42,-000.06,0000.11,0000.26,0000.34,0000.01,0000.10,0000.23,-000.02,17.9,24.6,,00.0,0646.0,31.0
2021-10-27T03:56:00Z,00000200,01000000,-000.26,0000.10,0000.30,0000.29,-000.21,-000.16,0000.47,0000.30,0000.35,17.8,24.6,,00.0,0646.0,30.9
2021-10-27T03:57:00Z,00000200,41000000,,,,,,,0000.01,-000.16,-000.18,17.8,24.6,,00.0,0646.1,30.9
2021-10-27T03:58:00Z,00000200,61000000,,,,,,,-000.34,-000.43,-000.02,17.4,24.6,,00.0,0645.1,30.9
2021-10-27T03:59:00Z,00000200,21000000,,,,,,,0000.18,0000.29,-000.07,17.4,24.7,,00.0,0645.1,30.9
